Flag for Canada Weather past 2 weeks in Winnipeg, Manitoba, Canada

Now
74 °F

Mild.


Feels Like: 73 °F
Forecast: 69 / 83 °F
Wind: 3 mph from East

Location: Winnipeg The Forks

Current Time: Sep 4, 2015 at 11:42:41 AM

Latest Report: Sep 4, 2015 at 11:00 AM


Visibility: N/A

Pressure: 29.81 "Hg

Humidity: 88%

Dew point: 70 °F

Location of WinnipegLocation

Historic Weather in Winnipeg — Graph

°F

Winnipeg temperature yesterday

Maximum temperature yesterday: 85 °F (at 3:00 PM)
Minimum temperature yesterday: 70 °F (at 4:00 AM)
Average temperature yesterday: 74 °F

Past Weeks' High & Low Weather Summary

 TemperatureHumidityPressure
High87 °F (Sep 2, 4:00 PM)96% (Aug 30, 7:00 AM)30.20 "Hg (Aug 30, 7:00 AM)
Low49 °F (Aug 26, 7:00 AM)29% (Aug 31, 6:00 PM)29.36 "Hg (Aug 22, 9:00 PM)
Average68 °F70%29.80 "Hg
* Reported Aug 20 11:00 AM — Sep 4 10:00 AM, Winnipeg, Weather by CustomWeather, © 2015

Note: Actual official high and low records may vary slightly from our data, if they occured in-between our weather recording intervals... More about our weather records

Advertising

Winnipeg weather history for previous 24 hours

 ConditionsComfort  
Time TempWeatherWind HumidityBarometerVisibility
10:00 AM
Fri, Sep 4
73 °FMild.6 mph90%29.80 "HgN/A
9:00 AM74 °FMild.3 mph90%29.79 "HgN/A
8:00 AM75 °FMild.2 mph88%29.77 "HgN/A
7:00 AM76 °FMild.2 mph85%29.76 "HgN/A
5:00 AM77 °FMild.3 mph84%29.76 "HgN/A
4:00 AM77 °FWarm.1 mph83%29.78 "HgN/A
3:00 AM78 °FWarm.3 mph84%29.75 "HgN/A
1:00 AM77 °FMild.1 mph80%29.71 "HgN/A
12:00 AM77 °FWarm.1 mph77%29.70 "HgN/A
11:00 PM
Thu, Sep 3
78 °FWarm.2 mph75%29.70 "HgN/A
10:00 PM80 °FWarm.1 mph72%29.70 "HgN/A
9:00 PM82 °FWarm.2 mph68%29.69 "HgN/A
3:00 PM85 °FWarm.3 mph62%29.69 "HgN/A
1:00 PM77 °FMild.3 mph78%29.74 "HgN/A
12:00 PM73 °FMild.2 mph84%29.75 "HgN/A
11:00 AM71 °FMild.2 mph87%29.77 "HgN/A
Weather by CustomWeather, © 2015

See weather overviewHow to use our weather pages